Tracking 31027 objects as of 19-Jul-2025
HD Live streaming from Space Station
objects crossing your sky now

SL-8 R/B

Track SL-8 R/B now!
10-day predictions


NORAD ID: 8073
Int'l Code: 1975-074B
Perigee: 968.1 km
Apogee: 1,000.6 km
Inclination: 82.9 °
Period: 104.6 minutes
Semi major axis: 7355 km
RCS: 4.716 m2 (large)
Launch date: August 14, 1975
Source: Commonwealth of Independent States (former USSR) (CIS)
Launch site: PLESETSK MISSILE AND SPACE COMPLEX (PKMTR)

Note: This is a ROCKET BODY
Your satellite tracking list
FENGYUN 1C DEB
Track 1 satellite(s)




NASA's NSSDC Master Catalog

Two Line Element Set (TLE):
1 08073U 75074B   25199.48154899  .00000051  00000-0  36413-4 0  9992
2 08073  82.9003 282.6222 0022067 154.6127 216.1620 13.76248598506124
Source of the keplerian elements: AFSPC